Weather in Nanyang

China     32°59′18″N   112°31′48″E
temp.,
°C
wind,
m/s
gust,
m/s
humid.,
%
clouds,
%
prec.,
mm/h
press.,
hPa
HPBL,
m
17 june, thu
thu1723:00+25ene5972100 0.0 1005468
02:00+25nne2471100 0.0 1004254
05:00+24sw3482100 0.2 1004382
08:00+23sw2285100 1.8 1006233
11:00+22wnw1189100 1.3 1007143
14:00+24n1277100 1.4 1007379
17:00+24ne2465100 0.0 1007494
20:00+23wnw1172100 0.0 100717
18 june, fri
fri1823:00+22wsw2379100 0.0 1008102
02:00+22nw1275100 0.0 100762
05:00+20nne2474100 0.7 1007229
08:00+19nne3483100 1.3 1009279
11:00+19nnw2487100 0.9 1009357
14:00+20wnw3483100 1.4 1008397
17:00+20wnw2275100 0.2 1007348
20:00+20w2485100 0.2 1007100
19 june, sat
sat1923:00+19wsw248493 0.0 1007108
02:00+19wnw2383100 0.0 100577
05:00+19ene1182100 0.0 100529
08:00+20ssw1179100 0.0 100624
11:00+21wnw0173100 0.0 100646
14:00+21sw3570100 0.0 1005162
17:00+20wsw2573100 0.0 1004151
20:00+19wsw5974100 0.0 1005229
20 june, sun
sun2023:00+20w4871100 0.0 1005160
02:00+20w61269100 0.0 1004265
05:00+18wsw61077100 0.0 1004281
08:00+19wsw4873100 0.0 1005183
11:00+21w4863100 0.0 1005240
14:00+23w4755100 0.0 1004261
17:00+26w344488 0.0 1003478
20:00+23sw336286 0.0 100340
21 june, mon
mon2123:00+20ssw22655 0.0 100416
02:00+19sw1169100 0.0 100311
05:00+19ne007097 0.0 100311
08:00+22ene006089 0.0 1004193
11:00+28se114199 0.0 1004639
14:00+32ese222974 0.0 10021103
17:00+33ese22275 0.0 10021248
20:00+28ssw224528 0.0 100318